Location: Goudex
(43.3760°N, 0.9543°E)
Time: 15:20:31
(UTC+00:00)

FENGYUN 3A - Pass Details

Date: 20 November 2019
Orbit: 823 x 836 km, 98.4° (Epoch: 15 December)

Event Time Altitude Azimuth Distance (km) Brightness Sun altitude
Rises 06:16:18 0° 5° (N) 3,389 6.7 -7.3°
Reaches altitude 10° 06:18:49 10° 357° (N) 2,449 5.9 -6.9°
Maximum altitude 06:23:43 36° 293° (WNW) 1,287 4.2 -6.1°
Drops below altitude 10° 06:28:35 10° 228° (SW) 2,427 5.8 -5.3°
Sets 06:31:05 0° 220° (SW) 3,354 6.6 -4.8°
